Location: Geelbroek
(52.9503°N, 6.5712°E)
Time: 19:27:20
(UTC+00:00)

Cosmos 2322 Rocket - Pass Details

Date: 15 May 2026
Orbit: 831 x 850 km, 71.0° (Epoch: 6 June)

Event Time Altitude Azimuth Distance (km) Brightness Sun altitude
Rises 20:32:26 0° 328° (NNW) 3,406 7.5 -8.4°
Reaches altitude 10° 20:34:53 10° 330° (NNW) 2,471 6.2 -8.7°
Maximum altitude 20:40:34 82° 57° (ENE) 861 2.3 -9.2°
Enters shadow 20:45:50 12° 146° (SE) 2,306 3.8 -9.7°
